Simultaneous Nadir Overpasses (SNOs) Predictions

Prediction of SNOs between AQUA and NPP Satellite Orbit:

Table of predicted SNOs for the next 14.0 days since TLE Epoch: 9/21/2013
Index Date (AQUA) Time (AQUA) Lat,Lon (AQUA) SZA (AQUA ) Date (NPP) Time (NPP) Lat,Lon (NPP) SZA (NPP ) Distance(km) Time Diff (sec)
1 09/21/2013 05:33:01 74.12, -29.08 98.26 09/21/2013 05:32:20 74.12, -29.08 98.30 0.13 41
2 09/21/2013 06:22:06 -75.27, 141.44 82.98 09/21/2013 06:22:42 -75.27, 141.37 82.99 2.17 36
3 09/23/2013 21:49:23 74.49, 87.67 98.82 09/23/2013 21:49:09 74.49, 87.64 98.84 1.00 14
4 09/23/2013 22:38:28 -75.64,-101.67 82.41 09/23/2013 22:39:31 -75.62,-101.76 82.44 2.72 63
5 09/26/2013 13:16:47 -73.49, 33.63 79.18 09/26/2013 13:15:43 -73.48, 33.60 79.11 0.89 64
6 09/26/2013 14:05:43 74.99,-155.20 99.25 09/26/2013 14:05:56 74.99,-155.20 99.24 0.25 13
7 09/29/2013 05:33:02 -74.24, 151.17 79.00 09/29/2013 05:32:25 -74.24, 151.21 78.98 1.48 37
8 09/29/2013 06:22:01 75.57, -37.75 99.59 09/29/2013 06:22:41 75.58, -37.67 99.54 2.31 40
9 10/01/2013 21:49:25 -74.55, -92.21 78.37 10/01/2013 21:49:16 -74.55, -92.21 78.36 0.07 9
10 10/01/2013 22:38:25 75.82, 78.86 100.29 10/01/2013 22:39:33 75.82, 78.88 100.22 0.79 68
11 10/04/2013 13:16:42 73.66,-146.01 103.51 10/04/2013 13:15:44 73.66,-145.97 103.55 1.21 58




NCC Satellite Simultaneous Nadir Overpasses (SNOs) Prediction Service
